GW2039 Weather Reports


Display with metric or nautical units.
time (UTC)temp
F
wind
direction
speed
MPH
gust
MPH
rain 1hr
in
rain 24hr
in
rain mn
in
humidity
%
barometer
mb
20260506115306 91 255 1.0 11.0 0.00 0.00 0.00 40 1005.2
20260506115202 91 220 2.0 11.0 0.00 0.00 0.00 39 1005.3
20260506115103 91 281 6.0 11.0 0.00 0.00 0.00 39 1005.2
20260506114902 91 276 6.0 11.0 0.00 0.00 0.00 40 1005.3
20260506114802 91 301 5.0 11.0 0.00 0.00 0.00 40 1005.2
20260506114601 91 296 5.0 9.0 0.00 0.00 0.00 39 1005.3
20260506114505 91 250 5.0 9.0 0.00 0.00 0.00 39 1005.3
20260506114404 91 278 5.0 8.0 0.00 0.00 0.00 39 1005.2
20260506114303 91 255 5.0 8.0 0.00 0.00 0.00 39 1005.3
20260506113901 91 257 3.0 7.0 0.00 0.00 0.00 38 1005.3
20260506113803 91 298 3.0 10.0 0.00 0.00 0.00 38 1005.2
20260506113603 91 257 3.0 10.0 0.00 0.00 0.00 39 1005.3
20260506113504 91 271 4.0 10.0 0.00 0.00 0.00 39 1005.3
20260506113404 91 274 4.0 10.0 0.00 0.00 0.00 37 1005.3
20260506113301 91 269 4.0 10.0 0.00 0.00 0.00 37 1005.3
20260506113204 91 275 5.0 10.0 0.00 0.00 0.00 37 1005.3
20260506113008 91 258 6.0 10.0 0.00 0.00 0.00 37 1005.3
20260506112903 91 263 3.0 8.0 0.00 0.00 0.00 38 1005.3
20260506112802 91 268 3.0 8.0 0.00 0.00 0.00 37 1005.4
20260506112703 91 264 4.0 10.0 0.00 0.00 0.00 36 1005.5
20260506112603 91 284 4.0 10.0 0.00 0.00 0.00 36 1005.4
20260506112504 91 293 3.0 10.0 0.00 0.00 0.00 36 1005.5
20260506112404 91 281 3.0 10.0 0.00 0.00 0.00 36 1005.4
20260506112306 91 315 3.0 11.0 0.00 0.00 0.00 37 1005.4
20260506112202 91 333 4.0 11.0 0.00 0.00 0.00 37 1005.5
20260506112103 91 302 4.0 11.0 0.00 0.00 0.00 37 1005.5
20260506112005 91 286 4.0 11.0 0.00 0.00 0.00 37 1005.5
20260506111903 91 281 5.0 11.0 0.00 0.00 0.00 37 1005.5
20260506111702 91 288 6.0 11.0 0.00 0.00 0.00 38 1005.6
20260506111603 91 319 8.0 11.0 0.00 0.00 0.00 38 1005.5
20260506111510 91 273 7.0 11.0 0.00 0.00 0.00 39 1005.5
20260506111405 91 260 6.0 10.0 0.00 0.00 0.00 39 1005.5
20260506111303 91 290 5.0 10.0 0.00 0.00 0.00 38 1005.5
20260506111201 91 289 6.0 11.0 0.00 0.00 0.00 38 1005.6
20260506111101 91 302 7.0 11.0 0.00 0.00 0.00 39 1005.5
20260506110902 91 239 7.0 11.0 0.00 0.00 0.00 39 1005.6
20260506110704 91 306 5.0 11.0 0.00 0.00 0.00 39 1005.5
20260506110603 91 265 4.0 11.0 0.00 0.00 0.00 38 1005.6
20260506110403 91 268 6.0 11.0 0.00 0.00 0.00 39 1005.6
20260506110202 91 240 3.0 10.0 0.00 0.00 0.00 38 1005.6
20260506110009 91 254 5.0 10.0 0.00 0.00 0.00 38 1005.6
20260506105903 92 246 5.0 10.0 0.00 0.00 0.00 38 1005.7
20260506105802 92 239 5.0 10.0 0.00 0.00 0.00 38 1005.7
20260506105705 92 238 7.0 10.0 0.00 0.00 0.00 38 1005.8
20260506105605 92 231 5.0 10.0 0.00 0.00 0.00 38 1005.8
20260506105504 92 219 3.0 9.0 0.00 0.00 0.00 38 1005.8
20260506105402 91 252 2.0 9.0 0.00 0.00 0.00 38 1005.8
20260506105305 91 235 2.0 9.0 0.00 0.00 0.00 37 1005.8
20260506105204 91 218 1.0 9.0 0.00 0.00 0.00 37 1005.8
20260506105102 91 173 3.0 11.0 0.00 0.00 0.00 37 1005.9
20260506105009 91 184 3.0 11.0 0.00 0.00 0.00 37 1005.9
20260506104805 91 304 4.0 12.0 0.00 0.00 0.00 38 1005.9
20260506104707 91 252 4.0 12.0 0.00 0.00 0.00 38 1005.9
20260506104604 91 308 4.0 12.0 0.00 0.00 0.00 39 1005.9
20260506104504 91 332 4.0 12.0 0.00 0.00 0.00 38 1005.9
20260506104402 91 265 6.0 12.0 0.00 0.00 0.00 38 1005.9
20260506104304 91 246 6.0 12.0 0.00 0.00 0.00 39 1005.9
20260506104204 91 280 7.0 14.0 0.00 0.00 0.00 39 1006.0
20260506104106 91 285 8.0 15.0 0.00 0.00 0.00 38 1005.9
20260506104008 91 284 7.0 15.0 0.00 0.00 0.00 37 1005.9
20260506103902 91 269 6.0 15.0 0.00 0.00 0.00 38 1005.9
20260506103804 91 246 5.0 15.0 0.00 0.00 0.00 38 1006.0
20260506103702 91 235 5.0 15.0 0.00 0.00 0.00 38 1005.9
20260506103604 91 250 7.0 15.0 0.00 0.00 0.00 37 1006.0
20260506103505 91 279 10.0 15.0 0.00 0.00 0.00 37 1006.0
20260506103304 91 287 7.0 12.0 0.00 0.00 0.00 38 1006.0
20260506103202 91 277 7.0 11.0 0.00 0.00 0.00 37 1006.0
20260506103101 91 266 7.0 11.0 0.00 0.00 0.00 36 1006.1
20260506103006 92 297 7.0 11.0 0.00 0.00 0.00 38 1006.0
20260506102905 92 297 6.0 10.0 0.00 0.00 0.00 37 1006.0
20260506102804 92 279 4.0 9.0 0.00 0.00 0.00 36 1005.9
20260506102703 92 257 5.0 9.0 0.00 0.00 0.00 36 1006.0
20260506102605 92 311 6.0 10.0 0.00 0.00 0.00 36 1006.0
20260506102505 92 286 5.0 10.0 0.00 0.00 0.00 37 1006.0
20260506102404 92 309 3.0 10.0 0.00 0.00 0.00 36 1006.0
20260506102305 91 310 4.0 10.0 0.00 0.00 0.00 36 1006.1
20260506102203 91 300 5.0 12.0 0.00 0.00 0.00 35 1006.0
20260506102105 91 288 5.0 12.0 0.00 0.00 0.00 36 1006.0
20260506102006 91 285 5.0 12.0 0.00 0.00 0.00 36 1006.1
20260506101904 91 311 6.0 12.0 0.00 0.00 0.00 36 1006.1
20260506101804 91 295 8.0 12.0 0.00 0.00 0.00 36 1006.0
20260506101703 91 313 8.0 12.0 0.00 0.00 0.00 36 1006.1
20260506101505 91 306 7.0 12.0 0.00 0.00 0.00 37 1006.0
20260506101402 91 355 7.0 12.0 0.00 0.00 0.00 37 1006.1
20260506101304 91 296 5.0 12.0 0.00 0.00 0.00 38 1006.0
20260506101105 91 310 7.0 12.0 0.00 0.00 0.00 36 1006.1
20260506101005 91 296 7.0 12.0 0.00 0.00 0.00 37 1006.0
20260506100905 91 296 8.0 12.0 0.00 0.00 0.00 37 1006.0
20260506100804 91 296 7.0 12.0 0.00 0.00 0.00 37 1006.1
20260506100703 91 296 6.0 12.0 0.00 0.00 0.00 37 1006.1
20260506100506 91 315 6.0 12.0 0.00 0.00 0.00 38 1006.1
20260506100303 91 309 6.0 15.0 0.00 0.00 0.00 36 1006.2
20260506100203 91 319 6.0 15.0 0.00 0.00 0.00 36 1006.2
20260506100103 91 309 4.0 15.0 0.00 0.00 0.00 37 1006.2
20260506100009 91 275 7.0 15.0 0.00 0.00 0.00 36 1006.2
20260506095805 91 282 8.0 15.0 0.00 0.00 0.00 37 1006.2
20260506095703 91 302 8.0 15.0 0.00 0.00 0.00 37 1006.1
20260506095506 91 305 8.0 15.0 0.00 0.00 0.00 37 1006.2
20260506095404 91 300 8.0 14.0 0.00 0.00 0.00 38 1006.2
20260506095205 91 298 8.0 14.0 0.00 0.00 0.00 38 1006.2
20260506095103 91 313 9.0 14.0 0.00 0.00 0.00 37 1006.3
20260506095008 91 311 10.0 14.0 0.00 0.00 0.00 38 1006.3
20260506094903 91 303 8.0 13.0 0.00 0.00 0.00 39 1006.3
20260506094803 91 331 7.0 14.0 0.00 0.00 0.00 39 1006.3
20260506094704 91 286 6.0 14.0 0.00 0.00 0.00 39 1006.3
20260506094604 91 275 6.0 14.0 0.00 0.00 0.00 39 1006.3
20260506094507 91 234 7.0 14.0 0.00 0.00 0.00 38 1006.3
20260506094103 91 284 10.0 14.0 0.00 0.00 0.00 39 1006.7
20260506093902 91 294 8.0 14.0 0.00 0.00 0.00 39 1006.6
20260506093803 91 314 6.0 14.0 0.00 0.00 0.00 38 1006.7
20260506093704 91 296 5.0 14.0 0.00 0.00 0.00 37 1006.6
20260506093604 91 286 7.0 14.0 0.00 0.00 0.00 38 1006.7
20260506093505 91 323 10.0 14.0 0.00 0.00 0.00 38 1006.8
20260506093404 92 302 9.0 14.0 0.00 0.00 0.00 38 1006.7
20260506093302 92 312 5.0 12.0 0.00 0.00 0.00 38 1006.8
20260506093205 92 298 4.0 12.0 0.00 0.00 0.00 38 1006.8
20260506093103 92 346 5.0 12.0 0.00 0.00 0.00 38 1006.8
20260506093007 91 340 6.0 12.0 0.00 0.00 0.00 38 1006.8
20260506092904 91 292 7.0 12.0 0.00 0.00 0.00 37 1006.8
20260506092805 91 292 8.0 12.0 0.00 0.00 0.00 38 1006.8
20260506092606 92 295 6.0 10.0 0.00 0.00 0.00 38 1006.8
20260506092505 91 309 5.0 10.0 0.00 0.00 0.00 38 1006.9
20260506092404 91 340 3.0 14.0 0.00 0.00 0.00 37 1006.9
20260506092306 91 322 4.0 14.0 0.00 0.00 0.00 36 1006.9
20260506092202 91 311 5.0 14.0 0.00 0.00 0.00 37 1006.9
20260506092104 91 333 3.0 14.0 0.00 0.00 0.00 37 1007.0
20260506092003 91 339 4.0 14.0 0.00 0.00 0.00 36 1006.9
20260506091903 91 313 5.0 14.0 0.00 0.00 0.00 35 1007.0
20260506091704 91 279 9.0 14.0 0.00 0.00 0.00 34 1007.0
20260506091601 91 254 6.0 14.0 0.00 0.00 0.00 36 1006.9
20260506091507 91 325 5.0 13.0 0.00 0.00 0.00 36 1006.9
20260506091405 91 355 5.0 13.0 0.00 0.00 0.00 35 1007.0
20260506091302 91 321 6.0 13.0 0.00 0.00 0.00 37 1007.1
20260506091202 91 349 5.0 13.0 0.00 0.00 0.00 36 1007.1
20260506091105 91 306 6.0 13.0 0.00 0.00 0.00 36 1007.0
20260506091005 91 292 8.0 13.0 0.00 0.00 0.00 36 1007.1
20260506090905 91 296 8.0 13.0 0.00 0.00 0.00 37 1007.1
20260506090704 91 310 7.0 13.0 0.00 0.00 0.00 36 1007.2
20260506090603 91 286 7.0 13.0 0.00 0.00 0.00 36 1007.2
20260506090506 92 289 9.0 13.0 0.00 0.00 0.00 36 1007.2
20260506090405 92 290 9.0 13.0 0.00 0.00 0.00 36 1007.2
20260506090303 92 278 9.0 12.0 0.00 0.00 0.00 36 1007.2
20260506090205 92 313 8.0 14.0 0.00 0.00 0.00 36 1007.2
20260506090103 92 281 6.0 14.0 0.00 0.00 0.00 37 1007.2
20260506090007 92 286 6.0 14.0 0.00 0.00 0.00 37 1007.3
20260506085901 92 265 6.0 14.0 0.00 0.00 0.00 37 1007.3
20260506085803 92 311 6.0 14.0 0.00 0.00 0.00 37 1007.1
20260506085703 91 269 6.0 14.0 0.00 0.00 0.00 37 1007.3
20260506085504 92 265 6.0 14.0 0.00 0.00 0.00 37 1007.2
20260506085403 92 234 6.0 14.0 0.00 0.00 0.00 37 1007.4
20260506085306 92 306 5.0 9.0 0.00 0.00 0.00 37 1007.4
20260506085201 92 292 5.0 9.0 0.00 0.00 0.00 38 1007.4
20260506085101 92 294 6.0 9.0 0.00 0.00 0.00 38 1007.4
20260506085005 92 251 5.0 9.0 0.00 0.00 0.00 39 1007.4
20260506084902 92 240 3.0 8.0 0.00 0.00 0.00 40 1007.4
20260506084804 92 238 3.0 8.0 0.00 0.00 0.00 39 1007.5
20260506084506 92 225 2.0 6.0 0.00 0.00 0.00 39 1007.4
20260506084402 92 34 2.0 6.0 0.00 0.00 0.00 39 1007.5
20260506084302 91 355 0.0 7.0 0.00 0.00 0.00 39 1007.6
20260506084203 91 341 1.0 7.0 0.00 0.00 0.00 39 1007.6
20260506084104 91 242 2.0 7.0 0.00 0.00 0.00 39 1007.5
20260506084008 91 235 3.0 8.0 0.00 0.00 0.00 39 1007.6
20260506083901 91 262 3.0 9.0 0.00 0.00 0.00 39 1007.7
20260506083802 91 265 1.0 9.0 0.00 0.00 0.00 40 1007.7
20260506083659 91 17 2.0 10.0 0.00 0.00 0.00 39 1007.7
20260506083603 91 17 3.0 10.0 0.00 0.00 0.00 40 1007.8
20260506083401 91 260 3.0 10.0 0.00 0.00 0.00 39 1007.8
20260506083203 91 278 5.0 12.0 0.00 0.00 0.00 40 1007.8
20260506082903 91 282 6.0 12.0 0.00 0.00 0.00 39 1007.9
20260506082802 91 267 5.0 12.0 0.00 0.00 0.00 39 1007.9
20260506082704 92 277 5.0 12.0 0.00 0.00 0.00 39 1007.9
20260506082603 91 281 5.0 12.0 0.00 0.00 0.00 39 1007.9
20260506082505 91 345 6.0 12.0 0.00 0.00 0.00 39 1007.9
20260506082404 91 355 5.0 12.0 0.00 0.00 0.00 40 1008.0
20260506082305 91 316 3.0 9.0 0.00 0.00 0.00 41 1007.9
20260506082202 91 355 1.0 9.0 0.00 0.00 0.00 41 1008.0
20260506082105 91 304 1.0 9.0 0.00 0.00 0.00 40 1008.0
20260506082008 91 355 3.0 9.0 0.00 0.00 0.00 40 1008.0
20260506081902 91 312 3.0 9.0 0.00 0.00 0.00 41 1008.1
20260506081802 91 192 2.0 9.0 0.00 0.00 0.00 40 1008.1
20260506081601 91 213 5.0 9.0 0.00 0.00 0.00 40 1008.0
20260506081505 91 206 4.0 9.0 0.00 0.00 0.00 41 1008.0
20260506081305 91 236 4.0 11.0 0.00 0.00 0.00 40 1008.0
20260506081202 91 261 4.0 11.0 0.00 0.00 0.00 39 1008.1
20260506081103 91 277 3.0 11.0 0.00 0.00 0.00 40 1008.1
20260506080902 91 267 5.0 11.0 0.00 0.00 0.00 40 1008.1
20260506080804 91 261 5.0 11.0 0.00 0.00 0.00 41 1008.1
20260506080702 91 243 7.0 11.0 0.00 0.00 0.00 40 1008.1
20260506080505 91 188 4.0 11.0 0.00 0.00 0.00 40 1008.1
20260506080404 91 198 3.0 7.0 0.00 0.00 0.00 41 1008.1
20260506080303 91 176 3.0 7.0 0.00 0.00 0.00 42 1008.2
20260506080203 91 223 3.0 6.0 0.00 0.00 0.00 41 1008.2
20260506073504 89 229 2.0 7.0 0.00 0.00 0.00 43 1008.7
20260506073402 89 228 3.0 7.0 0.00 0.00 0.00 43 1008.7
20260506073302 89 214 3.0 7.0 0.00 0.00 0.00 43 1008.8
20260506073007 89 240 3.0 7.0 0.00 0.00 0.00 44 1008.8
20260506072859 89 215 4.0 7.0 0.00 0.00 0.00 43 1008.8
20260506072802 89 183 3.0 9.0 0.00 0.00 0.00 44 1008.9
20260506072701 89 213 3.0 9.0 0.00 0.00 0.00 43 1008.9
20260506072201 89 209 5.0 9.0 0.00 0.00 0.00 42 1008.9
20260506072104 89 213 5.0 9.0 0.00 0.00 0.00 42 1009.0
20260506072006 89 206 3.0 9.0 0.00 0.00 0.00 43 1008.9
20260506071703 89 267 2.0 6.0 0.00 0.00 0.00 44 1009.1
20260506071603 89 261 1.0 6.0 0.00 0.00 0.00 44 1009.0
20260506071508 89 5 1.0 6.0 0.00 0.00 0.00 44 1009.1
20260506071403 88 26 1.0 6.0 0.00 0.00 0.00 45 1009.0
20260506071300 88 73 1.0 6.0 0.00 0.00 0.00 45 1009.1
20260506071203 88 60 2.0 6.0 0.00 0.00 0.00 44 1009.1
20260506071103 88 300 3.0 6.0 0.00 0.00 0.00 44 1009.1
20260506071005 88 282 2.0 6.0 0.00 0.00 0.00 45 1009.1
20260506070902 88 349 1.0 7.0 0.00 0.00 0.00 44 1009.1
20260506070803 88 336 1.0 7.0 0.00 0.00 0.00 44 1009.2
20260506070702 88 331 1.0 7.0 0.00 0.00 0.00 44 1009.2
20260506070604 88 328 2.0 7.0 0.00 0.00 0.00 44 1009.2
20260506070403 88 257 3.0 8.0 0.00 0.00 0.00 45 1009.2
20260506070302 88 251 3.0 8.0 0.00 0.00 0.00 46 1009.3
20260506070202 88 248 3.0 8.0 0.00 0.00 0.00 46 1009.2
20260506062504 87 161 4.0 6.0 0.00 0.00 0.00 48 1009.8
20260506062305 87 194 2.0 6.0 0.00 0.00 0.00 49 1009.9
20260506062203 87 187 2.0 6.0 0.00 0.00 0.00 49 1009.8
20260506062104 87 190 2.0 6.0 0.00 0.00 0.00 49 1009.9
20260506062007 87 207 2.0 6.0 0.00 0.00 0.00 48 1009.9
20260506061805 87 199 2.0 8.0 0.00 0.00 0.00 47 1009.9
20260506061702 87 91 3.0 8.0 0.00 0.00 0.00 48 1010.0
20260506061506 86 152 3.0 8.0 0.00 0.00 0.00 48 1010.0
20260506061404 86 145 3.0 8.0 0.00 0.00 0.00 48 1009.9
20260506061303 86 129 3.0 8.0 0.00 0.00 0.00 48 1010.0
20260506061202 86 146 3.0 8.0 0.00 0.00 0.00 47 1009.9
20260506061103 86 84 3.0 8.0 0.00 0.00 0.00 47 1010.0
20260506061005 86 129 3.0 8.0 0.00 0.00 0.00 48 1010.0
20260506060903 86 112 2.0 8.0 0.00 0.00 0.00 47 1010.0
20260506060804 86 105 3.0 8.0 0.00 0.00 0.00 48 1010.0
20260506060703 86 53 4.0 8.0 0.00 0.00 0.00 48 1010.0
20260506060402 86 45 3.0 9.0 0.00 0.00 0.00 49 1010.1
20260506060302 86 44 4.0 9.0 0.00 0.00 0.00 49 1010.0
20260506060201 86 67 4.0 9.0 0.00 0.00 0.00 49 1010.0
20260506051402 84 63 4.0 8.0 0.00 0.00 0.00 54 1010.4
20260506051303 84 119 5.0 8.0 0.00 0.00 0.00 53 1010.5
20260506051203 84 101 6.0 9.0 0.00 0.00 0.00 54 1010.5
20260506051103 84 121 5.0 9.0 0.00 0.00 0.00 54 1010.5
20260506051004 84 105 2.0 9.0 0.00 0.00 0.00 54 1010.4
20260506050900 84 162 1.0 9.0 0.00 0.00 0.00 54 1010.5
20260506050801 84 57 1.0 9.0 0.00 0.00 0.00 53 1010.4
20260506050702 84 131 2.0 9.0 0.00 0.00 0.00 53 1010.4
20260506050600 84 113 5.0 9.0 0.00 0.00 0.00 53 1010.5
20260506050303 84 155 4.0 9.0 0.00 0.00 0.00 54 1010.4
20260506050203 84 116 4.0 9.0 0.00 0.00 0.00 53 1010.5
20260506050107 84 118 5.0 9.0 0.00 0.00 0.00 54 1010.5
20260506045101 83 163 2.0 8.0 0.00 0.00 0.00 55 1010.4
20260506045004 83 150 2.0 8.0 0.00 0.00 0.00 55 1010.5
20260506044903 83 180 3.0 9.0 0.00 0.00 0.00 55 1010.4
20260506044801 83 143 4.0 9.0 0.00 0.00 0.00 55 1010.5
20260506044601 83 150 5.0 9.0 0.00 0.00 0.00 55 1010.4
20260506044504 83 141 5.0 9.0 0.00 0.00 0.00 55 1010.5
20260506044302 83 152 5.0 9.0 0.00 0.00 0.00 55 1010.5
20260506044201 83 133 5.0 9.0 0.00 0.00 0.00 56 1010.4
20260506044006 83 155 1.0 9.0 0.00 0.00 0.00 56 1010.4
20260506043802 83 126 3.0 9.0 0.00 0.00 0.00 57 1010.5
20260506043700 83 105 4.0 9.0 0.00 0.00 0.00 56 1010.5
20260506043602 83 176 5.0 9.0 0.00 0.00 0.00 56 1010.4
20260506043503 82 113 6.0 9.0 0.00 0.00 0.00 56 1010.4
20260506043203 82 58 4.0 6.0 0.00 0.00 0.00 57 1010.4
20260506043102 82 137 3.0 8.0 0.00 0.00 0.00 57 1010.4
20260506043005 82 101 4.0 8.0 0.00 0.00 0.00 57 1010.4
20260506042903 82 117 4.0 8.0 0.00 0.00 0.00 57 1010.4
20260506042801 82 111 3.0 8.0 0.00 0.00 0.00 57 1010.4
20260506042504 82 96 4.0 8.0 0.00 0.00 0.00 58 1010.5
20260506042402 82 360 4.0 8.0 0.00 0.00 0.00 58 1010.4
20260506042305 81 101 5.0 8.0 0.00 0.00 0.00 58 1010.4
20260506042203 81 84 3.0 8.0 0.00 0.00 0.00 58 1010.4
20260506042103 81 61 2.0 10.0 0.00 0.00 0.00 58 1010.4
20260506042006 81 123 4.0 10.0 0.00 0.00 0.00 58 1010.4
20260506041905 81 130 4.0 10.0 0.00 0.00 0.00 58 1010.4
20260506041801 81 113 3.0 10.0 0.00 0.00 0.00 58 1010.4
20260506041702 81 41 3.0 10.0 0.00 0.00 0.00 58 1010.4
20260506041600 81 149 4.0 10.0 0.00 0.00 0.00 58 1010.5
20260506041504 81 94 6.0 10.0 0.00 0.00 0.00 58 1010.4
20260506041400 81 123 7.0 10.0 0.00 0.00 0.00 58 1010.4
20260506041302 81 136 6.0 10.0 0.00 0.00 0.00 58 1010.4
20260506041202 81 145 5.0 10.0 0.00 0.00 0.00 59 1010.5
20260506041101 81 110 5.0 10.0 0.00 0.00 0.00 59 1010.5
20260506041005 81 96 4.0 10.0 0.00 0.00 0.00 59 1010.4
20260506040902 81 117 5.0 10.0 0.00 0.00 0.00 59 1010.4
20260506040802 81 161 4.0 10.0 0.00 0.00 0.00 59 1010.4
20260506040702 80 108 3.0 9.0 0.00 0.00 0.00 59 1010.4
20260506040602 80 115 4.0 9.0 0.00 0.00 0.00 59 1010.4
20260506040504 80 150 5.0 9.0 0.00 0.00 0.00 59 1010.4
20260506040402 80 139 4.0 9.0 0.00 0.00 0.00 60 1010.5
20260506040304 80 96 5.0 9.0 0.00 0.00 0.00 60 1010.5
20260506040201 80 99 6.0 9.0 0.00 0.00 0.00 59 1010.5
20260506040101 80 107 5.0 9.0 0.00 0.00 0.00 60 1010.5
20260506040004 80 53 5.0 9.0 0.00 0.00 0.00 60 1010.5
20260506035901 80 115 7.0 9.0 0.00 0.00 0.00 60 1010.4
20260506035804 80 160 6.0 9.0 0.00 0.00 0.00 60 1010.5
20260506035704 80 98 4.0 8.0 0.00 0.00 0.00 60 1010.4
20260506035403 80 157 5.0 10.0 0.00 0.00 0.00 60 1010.5
20260506035306 80 153 4.0 10.0 0.00 0.00 0.00 60 1010.5
20260506035203 80 121 2.0 10.0 0.00 0.00 0.00 60 1010.5
20260506035007 80 158 5.0 10.0 0.00 0.00 0.00 60 1010.5
20260506034902 80 123 6.0 10.0 0.00 0.00 0.00 60 1010.5
20260506034704 80 117 5.0 10.0 0.00 0.00 0.00 60 1010.5
20260506034601 79 134 4.0 9.0 0.00 0.00 0.00 60 1010.6
20260506034504 79 117 5.0 9.0 0.00 0.00 0.00 60 1010.5
20260506034404 79 150 4.0 9.0 0.00 0.00 0.00 60 1010.5
20260506034303 79 101 4.0 8.0 0.00 0.00 0.00 61 1010.5
20260506034203 79 103 4.0 8.0 0.00 0.00 0.00 61 1010.5
20260506034104 79 131 4.0 8.0 0.00 0.00 0.00 61 1010.5
20260506034006 79 158 3.0 8.0 0.00 0.00 0.00 61 1010.5
20260506033904 79 133 4.0 8.0 0.00 0.00 0.00 61 1010.6
20260506033803 79 191 5.0 8.0 0.00 0.00 0.00 61 1010.5
20260506033704 79 80 5.0 8.0 0.00 0.00 0.00 61 1010.5
20260506033505 79 80 6.0 8.0 0.00 0.00 0.00 61 1010.5
20260506033402 79 124 4.0 8.0 0.00 0.00 0.00 62 1010.6
20260506033303 79 164 4.0 8.0 0.00 0.00 0.00 61 1010.6
20260506033203 79 132 4.0 8.0 0.00 0.00 0.00 61 1010.6
20260506033103 79 170 2.0 8.0 0.00 0.00 0.00 62 1010.5
20260506033006 79 131 3.0 8.0 0.00 0.00 0.00 62 1010.5
20260506032902 79 50 4.0 8.0 0.00 0.00 0.00 62 1010.6
20260506032703 78 89 3.0 12.0 0.00 0.00 0.00 62 1010.5
20260506032602 78 89 4.0 12.0 0.00 0.00 0.00 62 1010.5
20260506032505 78 109 4.0 12.0 0.00 0.00 0.00 62 1010.5
20260506032203 78 115 4.0 12.0 0.00 0.00 0.00 62 1010.6
20260506032105 78 101 7.0 12.0 0.00 0.00 0.00 62 1010.5
20260506032005 78 134 7.0 12.0 0.00 0.00 0.00 62 1010.5
20260506031703 78 100 4.0 10.0 0.00 0.00 0.00 62 1010.4
20260506031504 78 112 5.0 10.0 0.00 0.00 0.00 62 1010.4
20260506031400 78 103 5.0 10.0 0.00 0.00 0.00 62 1010.4
20260506031303 78 115 5.0 10.0 0.00 0.00 0.00 62 1010.5
20260506031203 77 126 6.0 10.0 0.00 0.00 0.00 62 1010.4
20260506031103 77 97 7.0 10.0 0.00 0.00 0.00 62 1010.5
20260506031004 77 118 8.0 10.0 0.00 0.00 0.00 62 1010.4
20260506030904 77 119 7.0 10.0 0.00 0.00 0.00 62 1010.4
20260506030802 77 134 7.0 10.0 0.00 0.00 0.00 62 1010.4
20260506030704 77 143 7.0 10.0 0.00 0.00 0.00 62 1010.5
20260506030604 77 136 7.0 10.0 0.00 0.00 0.00 62 1010.4
20260506030505 77 134 7.0 10.0 0.00 0.00 0.00 62 1010.4
20260506030302 77 122 5.0 10.0 0.00 0.00 0.00 63 1010.4
20260506030204 77 156 5.0 9.0 0.00 0.00 0.00 62 1010.5
20260506030105 77 93 5.0 9.0 0.00 0.00 0.00 62 1010.4
20260506030009 77 128 6.0 9.0 0.00 0.00 0.00 62 1010.4
20260506025804 77 78 4.0 9.0 0.00 0.00 0.00 63 1010.4
20260506025704 77 101 3.0 9.0 0.00 0.00 0.00 63 1010.4
20260506025603 77 118 3.0 9.0 0.00 0.00 0.00 63 1010.4
20260506025506 77 130 3.0 9.0 0.00 0.00 0.00 63 1010.4
20260506025402 77 146 4.0 9.0 0.00 0.00 0.00 62 1010.4
20260506025305 77 111 6.0 9.0 0.00 0.00 0.00 62 1010.4
20260506025104 77 113 5.0 9.0 0.00 0.00 0.00 63 1010.4
20260506025010 77 128 3.0 9.0 0.00 0.00 0.00 63 1010.4
20260506024903 77 106 3.0 9.0 0.00 0.00 0.00 63 1010.3
20260506024803 77 103 3.0 9.0 0.00 0.00 0.00 63 1010.4
20260506024703 77 123 3.0 9.0 0.00 0.00 0.00 63 1010.4
20260506024604 77 74 3.0 9.0 0.00 0.00 0.00 63 1010.3
20260506024505 77 120 4.0 9.0 0.00 0.00 0.00 63 1010.4
20260506024403 76 118 5.0 9.0 0.00 0.00 0.00 63 1010.5
20260506024303 76 80 5.0 9.0 0.00 0.00 0.00 63 1010.4
20260506024203 76 115 4.0 8.0 0.00 0.00 0.00 63 1010.4
20260506024102 76 104 4.0 8.0 0.00 0.00 0.00 63 1010.4
20260506023904 76 95 3.0 8.0 0.00 0.00 0.00 63 1010.4
20260506023803 76 118 3.0 8.0 0.00 0.00 0.00 63 1010.3
20260506023704 76 82 4.0 8.0 0.00 0.00 0.00 63 1010.4
20260506023602 76 113 3.0 8.0 0.00 0.00 0.00 63 1010.4
20260506023505 76 130 3.0 8.0 0.00 0.00 0.00 63 1010.4
20260506023302 76 140 4.0 8.0 0.00 0.00 0.00 63 1010.4
20260506023203 76 125 3.0 8.0 0.00 0.00 0.00 63 1010.4
20260506023103 76 135 2.0 9.0 0.00 0.00 0.00 63 1010.4
20260506022903 76 125 4.0 9.0 0.00 0.00 0.00 63 1010.4
20260506022802 76 109 4.0 9.0 0.00 0.00 0.00 63 1010.3
20260506022703 76 101 3.0 9.0 0.00 0.00 0.00 63 1010.3
20260506022602 76 128 4.0 9.0 0.00 0.00 0.00 63 1010.3
20260506022505 76 109 5.0 9.0 0.00 0.00 0.00 63 1010.3
20260506022402 75 119 6.0 9.0 0.00 0.00 0.00 63 1010.3
20260506022306 75 126 4.0 9.0 0.00 0.00 0.00 63 1010.3
20260506022106 75 114 3.0 8.0 0.00 0.00 0.00 63 1010.2
20260506022008 75 171 4.0 8.0 0.00 0.00 0.00 63 1010.2
20260506021905 75 96 5.0 8.0 0.00 0.00 0.00 63 1010.2
20260506021802 75 114 5.0 8.0 0.00 0.00 0.00 63 1010.2
20260506021704 75 129 4.0 8.0 0.00 0.00 0.00 63 1010.2
20260506021602 75 125 4.0 8.0 0.00 0.00 0.00 63 1010.2
20260506021401 75 125 3.0 8.0 0.00 0.00 0.00 63 1010.2
20260506021302 75 65 3.0 8.0 0.00 0.00 0.00 63 1010.2
20260506021102 75 132 3.0 8.0 0.00 0.00 0.00 63 1010.1
20260506021006 75 339 4.0 8.0 0.00 0.00 0.00 63 1010.0
20260506020903 75 92 3.0 8.0 0.00 0.00 0.00 63 1010.1
20260506020802 75 91 3.0 9.0 0.00 0.00 0.00 63 1010.1
20260506020602 75 123 3.0 9.0 0.00 0.00 0.00 63 1010.0
20260506020402 74 31 2.0 9.0 0.00 0.00 0.00 63 1010.0
20260506020303 74 88 2.0 9.0 0.00 0.00 0.00 63 1010.0
20260506020202 74 158 3.0 9.0 0.00 0.00 0.00 63 1010.0
20260506020104 74 82 5.0 9.0 0.00 0.00 0.00 63 1010.0
20260506020009 74 113 4.0 9.0 0.00 0.00 0.00 64 1010.0
20260506015902 74 82 2.0 6.0 0.00 0.00 0.00 64 1010.0
20260506015803 74 86 2.0 6.0 0.00 0.00 0.00 64 1010.0
20260506015703 74 96 2.0 6.0 0.00 0.00 0.00 64 1010.0
20260506015603 74 90 3.0 6.0 0.00 0.00 0.00 64 1010.0
20260506015505 74 17 4.0 6.0 0.00 0.00 0.00 64 1010.0
20260506015404 74 130 3.0 7.0 0.00 0.00 0.00 64 1010.0
20260506015305 73 105 3.0 7.0 0.00 0.00 0.00 65 1010.0
20260506015103 73 137 2.0 9.0 0.00 0.00 0.00 65 1010.0
20260506015006 73 107 2.0 9.0 0.00 0.00 0.00 65 1009.9
20260506014903 73 109 3.0 9.0 0.00 0.00 0.00 65 1009.9
20260506014803 73 99 2.0 9.0 0.00 0.00 0.00 65 1009.9
20260506014703 73 81 2.0 9.0 0.00 0.00 0.00 65 1009.9
20260506014603 73 117 3.0 9.0 0.00 0.00 0.00 65 1009.9
20260506014505 73 95 4.0 9.0 0.00 0.00 0.00 65 1009.8
20260506014403 73 119 4.0 9.0 0.00 0.00 0.00 65 1009.9
20260506014303 73 107 2.0 7.0 0.00 0.00 0.00 65 1009.9
20260506014203 73 130 1.0 7.0 0.00 0.00 0.00 65 1009.9
20260506014103 72 78 1.0 7.0 0.00 0.00 0.00 65 1009.9
20260506013904 72 96 2.0 7.0 0.00 0.00 0.00 65 1009.8
20260506013803 72 124 2.0 7.0 0.00 0.00 0.00 65 1009.8
20260506013703 72 80 3.0 7.0 0.00 0.00 0.00 65 1009.8
20260506013602 72 86 2.0 7.0 0.00 0.00 0.00 65 1009.9
20260506013504 72 100 2.0 7.0 0.00 0.00 0.00 65 1009.9
20260506013403 72 116 2.0 6.0 0.00 0.00 0.00 65 1009.7
20260506013203 72 132 2.0 6.0 0.00 0.00 0.00 65 1009.8
20260506013103 72 98 2.0 6.0 0.00 0.00 0.00 65 1009.8
20260506013007 72 113 2.0 6.0 0.00 0.00 0.00 65 1009.8
20260506012903 72 80 3.0 6.0 0.00 0.00 0.00 65 1009.8
20260506012702 72 90 2.0 6.0 0.00 0.00 0.00 65 1009.8
20260506012603 72 88 2.0 6.0 0.00 0.00 0.00 65 1009.8
20260506012504 72 95 2.0 6.0 0.00 0.00 0.00 65 1009.8
20260506012307 72 132 3.0 5.0 0.00 0.00 0.00 66 1009.7
20260506012159 72 101 2.0 4.0 0.00 0.00 0.00 66 1009.7
20260506012104 72 100 2.0 4.0 0.00 0.00 0.00 66 1009.6
20260506012006 72 69 2.0 4.0 0.00 0.00 0.00 66 1009.6
20260506011905 71 89 2.0 4.0 0.00 0.00 0.00 66 1009.6
20260506011803 71 113 2.0 4.0 0.00 0.00 0.00 66 1009.7
20260506011705 71 115 0.0 4.0 0.00 0.00 0.00 66 1009.6
20260506011606 71 104 1.0 4.0 0.00 0.00 0.00 66 1009.6
20260506011505 71 98 1.0 4.0 0.00 0.00 0.00 66 1009.7
20260506011303 71 123 1.0 3.0 0.00 0.00 0.00 67 1009.7
20260506011203 71 96 1.0 3.0 0.00 0.00 0.00 67 1009.6
20260506011102 71 93 0.0 3.0 0.00 0.00 0.00 67 1009.6
20260506011006 71 109 0.0 3.0 0.00 0.00 0.00 67 1009.6
20260506010903 71 99 1.0 3.0 0.00 0.00 0.00 67 1009.5
20260506010704 71 109 1.0 3.0 0.00 0.00 0.00 67 1009.6
20260506010603 71 88 2.0 3.0 0.00 0.00 0.00 67 1009.6
20260506010505 71 114 1.0 3.0 0.00 0.00 0.00 67 1009.6
20260506010402 71 104 1.0 3.0 0.00 0.00 0.00 67 1009.6
20260506010302 71 103 0.0 3.0 0.00 0.00 0.00 67 1009.6
20260506010203 71 88 0.0 3.0 0.00 0.00 0.00 67 1009.6
20260506010100 71 87 0.0 3.0 0.00 0.00 0.00 67 1009.5
20260506010009 71 88 0.0 3.0 0.00 0.00 0.00 67 1009.5
20260506005903 71 317 1.0 3.0 0.00 0.00 0.00 67 1009.6
20260506005803 71 114 2.0 3.0 0.00 0.00 0.00 67 1009.6
20260506005703 71 96 2.0 3.0 0.00 0.00 0.00 67 1009.6
20260506005505 71 69 1.0 3.0 0.00 0.00 0.00 67 1009.5
20260506005402 71 67 1.0 3.0 0.00 0.00 0.00 67 1009.5
20260506005305 71 71 1.0 3.0 0.00 0.00 0.00 67 1009.5
20260506005204 71 69 1.0 3.0 0.00 0.00 0.00 67 1009.5
20260506005104 71 96 1.0 3.0 0.00 0.00 0.00 67 1009.5
20260506005006 71 115 1.0 3.0 0.00 0.00 0.00 67 1009.5
20260506004802 71 91 1.0 4.0 0.00 0.00 0.00 67 1009.5
20260506004702 71 72 0.0 4.0 0.00 0.00 0.00 67 1009.5
20260506004603 71 90 0.0 4.0 0.00 0.00 0.00 67 1009.4
20260506004503 71 92 0.0 4.0 0.00 0.00 0.00 67 1009.4
20260506004404 71 110 1.0 4.0 0.00 0.00 0.00 67 1009.4
20260506004301 71 81 1.0 6.0 0.00 0.00 0.00 67 1009.5
20260506004103 71 82 2.0 6.0 0.00 0.00 0.00 66 1009.4
20260506004006 71 64 2.0 6.0 0.00 0.00 0.00 66 1009.5
20260506003900 71 81 2.0 6.0 0.00 0.00 0.00 66 1009.5
20260506003803 71 115 2.0 6.0 0.00 0.00 0.00 66 1009.4
20260506003603 71 59 2.0 6.0 0.00 0.00 0.00 66 1009.4
20260506003505 71 95 2.0 6.0 0.00 0.00 0.00 66 1009.4
20260506003401 71 63 3.0 6.0 0.00 0.00 0.00 66 1009.3
20260506003303 71 58 4.0 6.0 0.00 0.00 0.00 66 1009.4
20260506003201 71 88 3.0 7.0 0.00 0.00 0.00 66 1009.4
20260506003101 71 65 3.0 7.0 0.00 0.00 0.00 66 1009.4
20260506003007 71 74 2.0 7.0 0.00 0.00 0.00 66 1009.3
20260506002804 71 91 2.0 4.0 0.00 0.00 0.00 66 1009.3
20260506002701 71 40 2.0 4.0 0.00 0.00 0.00 66 1009.2
20260506002602 71 54 3.0 4.0 0.00 0.00 0.00 66 1009.2
20260506002505 71 44 3.0 4.0 0.00 0.00 0.00 66 1009.2
20260506002402 71 50 3.0 4.0 0.00 0.00 0.00 66 1009.3
20260506002305 71 50 3.0 4.0 0.00 0.00 0.00 65 1009.2
20260506002204 71 51 3.0 4.0 0.00 0.00 0.00 65 1009.2
20260506002005 72 54 1.0 4.0 0.00 0.00 0.00 65 1009.1
20260506001902 72 59 1.0 4.0 0.00 0.00 0.00 65 1009.1
20260506001802 72 53 1.0 4.0 0.00 0.00 0.00 65 1009.2
20260506001702 72 51 2.0 4.0 0.00 0.00 0.00 65 1009.1
20260506001401 72 66 2.0 4.0 0.00 0.00 0.00 64 1009.1
20260506001201 72 94 1.0 4.0 0.00 0.00 0.00 63 1009.1
20260506001102 72 92 1.0 4.0 0.00 0.00 0.00 63 1009.1
20260506001004 72 87 1.0 4.0 0.00 0.00 0.00 63 1009.1
20260506000901 72 98 2.0 4.0 0.00 0.00 0.00 63 1009.0
20260506000759 72 81 3.0 4.0 0.00 0.00 0.00 63 1009.0
20260506000503 72 75 2.0 4.0 0.00 0.00 0.00 63 1009.0
20260506000401 72 63 2.0 4.0 0.00 0.00 0.00 63 1009.0
20260506000302 72 61 3.0 4.0 0.00 0.00 0.00 63 1009.0
20260506000201 72 70 3.0 4.0 0.00 0.00 0.00 63 1009.0
20260506000008 72 59 3.0 4.0 0.00 0.00 0.00 63 1009.0
20260505235901 72 78 3.0 4.0 0.00 0.00 0.00 63 1009.0
20260505235801 72 80 1.0 4.0 0.00 0.00 0.00 63 1009.0
20260505235701 72 64 1.0 4.0 0.00 0.00 0.00 63 1009.0
20260505235601 72 102 1.0 4.0 0.00 0.00 0.00 63 1009.0
20260505235503 72 96 1.0 4.0 0.00 0.00 0.00 63 1009.0
20260505235403 72 105 1.0 4.0 0.00 0.00 0.00 63 1009.0
20260505235301 72 93 1.0 4.0 0.00 0.00 0.00 63 1009.0
20260505235100 72 69 1.0 4.0 0.00 0.00 0.00 63 1009.0
20260505235007 72 70 1.0 4.0 0.00 0.00 0.00 62 1009.0
20260505234901 72 103 1.0 4.0 0.00 0.00 0.00 63 1009.0
20260505234802 72 74 1.0 4.0 0.00 0.00 0.00 62 1009.0
20260505234702 72 113 1.0 4.0 0.00 0.00 0.00 62 1009.0
20260505234601 72 71 1.0 4.0 0.00 0.00 0.00 62 1009.0
20260505234505 72 78 2.0 4.0 0.00 0.00 0.00 62 1009.0
20260505234401 72 60 1.0 4.0 0.00 0.00 0.00 62 1009.0
20260505234301 72 83 1.0 3.0 0.00 0.00 0.00 62 1008.9
20260505234202 72 101 1.0 3.0 0.00 0.00 0.00 62 1008.9
20260505234102 73 103 2.0 3.0 0.00 0.00 0.00 62 1009.0
20260505234004 73 76 1.0 3.0 0.00 0.00 0.00 62 1008.9
20260505233807 73 82 1.0 2.0 0.00 0.00 0.00 62 1009.0
20260505233701 73 90 1.0 2.0 0.00 0.00 0.00 62 1009.0
20260505233601 73 101 0.0 2.0 0.00 0.00 0.00 62 1009.0
20260505233503 73 81 0.0 1.0 0.00 0.00 0.00 62 1008.9
20260505233301 73 74 0.0 1.0 0.00 0.00 0.00 62 1008.9
20260505233201 73 90 0.0 1.0 0.00 0.00 0.00 62 1008.9
20260505233101 73 84 0.0 1.0 0.00 0.00 0.00 62 1009.0
20260505233003 73 95 0.0 1.0 0.00 0.00 0.00 62 1008.9
20260505232801 73 94 0.0 1.0 0.00 0.00 0.00 62 1008.9
20260505232701 73 60 0.0 3.0 0.00 0.00 0.00 62 1009.0
20260505232600 73 98 0.0 3.0 0.00 0.00 0.00 62 1009.0
20260505232505 73 83 0.0 3.0 0.00 0.00 0.00 62 1009.0
20260505232304 73 101 0.0 3.0 0.00 0.00 0.00 62 1008.9
20260505232005 73 101 1.0 3.0 0.00 0.00 0.00 62 1008.9
20260505231902 73 111 2.0 3.0 0.00 0.00 0.00 62 1008.9
20260505231801 73 138 1.0 3.0 0.00 0.00 0.00 62 1008.9
20260505231701 73 103 1.0 3.0 0.00 0.00 0.00 62 1008.8
20260505231603 73 110 0.0 3.0 0.00 0.00 0.00 62 1008.8
20260505231401 73 111 1.0 4.0 0.00 0.00 0.00 63 1008.9
20260505231301 73 117 1.0 4.0 0.00 0.00 0.00 63 1008.8
20260505231102 73 66 1.0 4.0 0.00 0.00 0.00 63 1008.8
20260505231003 73 100 1.0 4.0 0.00 0.00 0.00 63 1008.8
20260505230801 73 144 1.0 4.0 0.00 0.00 0.00 63 1008.8
20260505230604 73 107 1.0 4.0 0.00 0.00 0.00 63 1008.8
20260505230401 73 88 2.0 4.0 0.00 0.00 0.00 62 1008.8
20260505230302 73 101 2.0 4.0 0.00 0.00 0.00 62 1008.8
20260505230007 73 101 2.0 6.0 0.00 0.00 0.00 62 1008.7
20260505225859 73 112 1.0 6.0 0.00 0.00 0.00 62 1008.7
20260505225801 73 78 0.0 6.0 0.00 0.00 0.00 62 1008.7
20260505225701 73 112 1.0 6.0 0.00 0.00 0.00 62 1008.7
20260505225600 73 73 1.0 6.0 0.00 0.00 0.00 62 1008.7
20260505225501 73 113 2.0 6.0 0.00 0.00 0.00 62 1008.7
20260505225305 73 90 1.0 4.0 0.00 0.00 0.00 62 1008.7
20260505225200 73 89 1.0 4.0 0.00 0.00 0.00 62 1008.6
20260505225102 73 108 1.0 4.0 0.00 0.00 0.00 62 1008.6
20260505225004 73 86 1.0 4.0 0.00 0.00 0.00 63 1008.6
20260505224901 73 111 2.0 4.0 0.00 0.00 0.00 63 1008.7
20260505224800 73 98 2.0 4.0 0.00 0.00 0.00 63 1008.6
20260505224702 73 103 2.0 4.0 0.00 0.00 0.00 63 1008.7
20260505224600 73 128 2.0 4.0 0.00 0.00 0.00 63 1008.7
20260505224503 73 109 2.0 4.0 0.00 0.00 0.00 63 1008.6
20260505224400 73 121 1.0 4.0 0.00 0.00 0.00 63 1008.6
20260505224301 73 122 2.0 4.0 0.00 0.00 0.00 63 1008.6
20260505224201 73 121 2.0 4.0 0.00 0.00 0.00 63 1008.6
20260505224100 73 123 2.0 4.0 0.00 0.00 0.00 64 1008.6
20260505224003 73 93 1.0 5.0 0.00 0.00 0.00 64 1008.6
20260505223901 73 130 1.0 5.0 0.00 0.00 0.00 64 1008.6
20260505223801 73 104 1.0 5.0 0.00 0.00 0.00 64 1008.6
20260505223701 73 116 2.0 5.0 0.00 0.00 0.00 64 1008.6
20260505223601 73 98 2.0 5.0 0.00 0.00 0.00 64 1008.6
20260505223504 73 119 2.0 5.0 0.00 0.00 0.00 64 1008.6
20260505223400 72 107 2.0 5.0 0.00 0.00 0.00 64 1008.6
20260505223301 72 125 2.0 5.0 0.00 0.00 0.00 64 1008.6
20260505223201 72 128 3.0 5.0 0.00 0.00 0.00 64 1008.6
20260505223102 72 146 2.0 6.0 0.00 0.00 0.00 64 1008.6
20260505223005 72 146 2.0 6.0 0.00 0.00 0.00 64 1008.6
20260505222901 72 157 3.0 6.0 0.00 0.00 0.00 64 1008.6
20260505222800 72 103 3.0 6.0 0.00 0.00 0.00 64 1008.6
20260505222558 72 142 3.0 5.0 0.00 0.00 0.00 65 1008.6
20260505222503 72 115 3.0 5.0 0.00 0.00 0.00 65 1008.6
20260505222300 72 165 2.0 6.0 0.00 0.00 0.00 65 1008.6
20260505222202 72 98 3.0 6.0 0.00 0.00 0.00 65 1008.6
20260505222005 72 96 2.0 6.0 0.00 0.00 0.00 66 1008.6
20260505221901 72 121 2.0 8.0 0.00 0.00 0.00 66 1008.6
20260505221800 72 106 3.0 8.0 0.00 0.00 0.00 66 1008.7
20260505221659 72 133 3.0 8.0 0.00 0.00 0.00 66 1008.7
20260505221402 72 120 3.0 8.0 0.00 0.00 0.00 66 1008.6
20260505221302 72 109 4.0 8.0 0.00 0.00 0.00 66 1008.7
20260505221005 72 99 4.0 7.0 0.00 0.00 0.00 67 1008.7
20260505220901 72 103 3.0 7.0 0.00 0.00 0.00 67 1008.8
20260505220801 72 130 2.0 7.0 0.00 0.00 0.00 67 1008.8
20260505220659 72 100 2.0 7.0 0.00 0.00 0.00 67 1008.8
20260505220600 72 103 2.0 7.0 0.00 0.00 0.00 67 1008.8
20260505220503 72 88 2.0 7.0 0.00 0.00 0.00 67 1008.8
20260505220201 72 111 3.0 7.0 0.00 0.00 0.00 67 1008.8
20260505220003 72 77 3.0 7.0 0.00 0.00 0.00 67 1008.7
20260505215901 72 101 3.0 7.0 0.00 0.00 0.00 67 1008.8
20260505215801 72 119 3.0 6.0 0.00 0.00 0.00 67 1008.8
20260505215701 72 107 3.0 6.0 0.00 0.00 0.00 67 1008.8
20260505215602 72 80 3.0 6.0 0.00 0.00 0.00 67 1008.8
20260505215503 72 116 3.0 6.0 0.00 0.00 0.00 67 1008.8
20260505215401 72 103 3.0 6.0 0.00 0.00 0.00 68 1008.8
20260505215304 72 103 3.0 6.0 0.00 0.00 0.00 68 1008.8
20260505215202 72 92 2.0 4.0 0.00 0.00 0.00 68 1008.9
20260505215100 72 50 1.0 4.0 0.00 0.00 0.00 68 1008.8
20260505215003 72 96 2.0 4.0 0.00 0.00 0.00 68 1008.8
20260505214902 72 86 1.0 6.0 0.00 0.00 0.00 68 1008.8
20260505214801 72 58 0.0 6.0 0.00 0.00 0.00 68 1009.0
20260505214702 72 90 1.0 6.0 0.00 0.00 0.00 68 1008.9
20260505214600 72 111 2.0 6.0 0.00 0.00 0.00 68 1008.9
20260505214507 72 101 2.0 6.0 0.00 0.00 0.00 68 1008.9
20260505214401 72 102 2.0 6.0 0.00 0.00 0.00 68 1008.9
20260505214303 72 114 2.0 6.0 0.00 0.00 0.00 67 1008.9
20260505214201 72 46 2.0 6.0 0.00 0.00 0.00 67 1009.0
20260505214101 72 92 2.0 6.0 0.00 0.00 0.00 67 1009.0
20260505214005 72 79 1.0 4.0 0.00 0.00 0.00 67 1009.0
20260505213903 72 76 1.0 4.0 0.00 0.00 0.00 67 1008.9
20260505213801 72 58 0.0 4.0 0.00 0.00 0.00 67 1009.0
20260505213702 72 45 1.0 4.0 0.00 0.00 0.00 67 1009.0
20260505213600 72 32 1.0 4.0 0.00 0.00 0.00 67 1009.1
20260505213503 72 76 2.0 4.0 0.00 0.00 0.00 67 1009.0
20260505213401 72 52 3.0 4.0 0.00 0.00 0.00 67 1009.1
20260505213302 72 40 2.0 4.0 0.00 0.00 0.00 67 1009.1
20260505213202 72 57 1.0 4.0 0.00 0.00 0.00 67 1009.0
20260505213102 72 61 1.0 4.0 0.00 0.00 0.00 66 1009.0
20260505213004 72 78 2.0 4.0 0.00 0.00 0.00 66 1009.0
20260505212701 73 49 3.0 4.0 0.00 0.00 0.00 66 1009.0
20260505212602 73 51 3.0 4.0 0.00 0.00 0.00 65 1009.0
20260505212503 73 56 2.0 4.0 0.00 0.00 0.00 65 1009.1
20260505212401 73 36 1.0 5.0 0.00 0.00 0.00 65 1009.1
20260505212305 73 360 1.0 5.0 0.00 0.00 0.00 65 1009.0
20260505212202 73 62 2.0 5.0 0.00 0.00 0.00 65 1009.1
20260505212100 73 49 1.0 5.0 0.00 0.00 0.00 64 1009.0
20260505212005 73 63 0.0 5.0 0.00 0.00 0.00 64 1009.0
20260505211901 73 82 0.0 5.0 0.00 0.00 0.00 64 1009.1
20260505211600 73 71 4.0 5.0 0.00 0.00 0.00 64 1009.1
20260505211359 73 61 3.0 5.0 0.00 0.00 0.00 64 1009.0
20260505211302 74 81 3.0 5.0 0.00 0.00 0.00 64 1009.1
20260505211102 74 50 3.0 5.0 0.00 0.00 0.00 64 1009.0
20260505211006 74 34 3.0 5.0 0.00 0.00 0.00 64 1009.0
20260505210901 74 24 3.0 5.0 0.00 0.00 0.00 64 1009.1
20260505210802 74 35 3.0 5.0 0.00 0.00 0.00 64 1009.0
20260505210702 74 43 3.0 5.0 0.00 0.00 0.00 64 1009.1
20260505210600 74 28 3.0 4.0 0.00 0.00 0.00 63 1009.1
20260505210504 74 63 2.0 4.0 0.00 0.00 0.00 63 1009.1
20260505210400 74 55 2.0 4.0 0.00 0.00 0.00 63 1009.1
20260505210301 74 61 1.0 4.0 0.00 0.00 0.00 63 1009.1
20260505210202 74 71 1.0 4.0 0.00 0.00 0.00 63 1009.0
20260505210108 74 86 0.0 4.0 0.00 0.00 0.00 63 1009.1
20260505210008 74 55 0.0 4.0 0.00 0.00 0.00 63 1009.1
20260505205902 74 42 1.0 4.0 0.00 0.00 0.00 63 1009.1
20260505205803 74 74 1.0 4.0 0.00 0.00 0.00 63 1009.0
20260505205701 74 36 2.0 5.0 0.00 0.00 0.00 63 1009.1
20260505205602 74 56 2.0 5.0 0.00 0.00 0.00 62 1009.1
20260505205403 74 69 1.0 5.0 0.00 0.00 0.00 62 1009.1
20260505205305 74 69 1.0 5.0 0.00 0.00 0.00 62 1009.2
20260505205201 74 84 1.0 5.0 0.00 0.00 0.00 62 1009.2
20260505205004 74 38 3.0 5.0 0.00 0.00 0.00 62 1009.2
20260505204900 74 71 2.0 5.0 0.00 0.00 0.00 62 1009.2
20260505204802 74 85 0.0 2.0 0.00 0.00 0.00 62 1009.2
20260505204701 74 76 0.0 2.0 0.00 0.00 0.00 61 1009.3
20260505204602 74 77 0.0 2.0 0.00 0.00 0.00 61 1009.2
20260505204503 74 89 0.0 2.0 0.00 0.00 0.00 61 1009.2
20260505204401 74 94 0.0 2.0 0.00 0.00 0.00 61 1009.2
20260505204300 74 113 0.0 2.0 0.00 0.00 0.00 61 1009.3
20260505204203 74 46 0.0 2.0 0.00 0.00 0.00 61 1009.2
20260505204101 74 82 0.0 2.0 0.00 0.00 0.00 60 1009.2
20260505204003 74 49 0.0 2.0 0.00 0.00 0.00 60 1009.2
20260505203900 74 38 0.0 2.0 0.00 0.00 0.00 60 1009.2
20260505203801 74 55 1.0 2.0 0.00 0.00 0.00 60 1009.2
20260505203602 74 99 1.0 2.0 0.00 0.00 0.00 60 1009.2
20260505203505 74 85 1.0 2.0 0.00 0.00 0.00 60 1009.2
20260505203401 74 78 1.0 2.0 0.00 0.00 0.00 60 1009.3
20260505203201 74 67 1.0 2.0 0.00 0.00 0.00 60 1009.3
20260505203100 74 77 1.0 3.0 0.00 0.00 0.00 60 1009.3
20260505203006 74 106 1.0 3.0 0.00 0.00 0.00 60 1009.2
20260505202901 74 133 1.0 3.0 0.00 0.00 0.00 60 1009.3
20260505202701 75 72 0.0 3.0 0.00 0.00 0.00 60 1009.4
20260505202601 74 59 0.0 3.0 0.00 0.00 0.00 60 1009.4
20260505202503 75 92 1.0 3.0 0.00 0.00 0.00 60 1009.3
20260505202401 74 51 1.0 3.0 0.00 0.00 0.00 60 1009.4
20260505202300 75 66 1.0 3.0 0.00 0.00 0.00 60 1009.4
20260505202202 75 95 1.0 3.0 0.00 0.00 0.00 60 1009.3
20260505202100 74 62 1.0 3.0 0.00 0.00 0.00 59 1009.3
20260505202004 75 84 2.0 3.0 0.00 0.00 0.00 59 1009.3
20260505201900 75 69 2.0 3.0 0.00 0.00 0.00 59 1009.4
20260505201800 75 55 1.0 3.0 0.00 0.00 0.00 59 1009.3
20260505201700 74 51 0.0 4.0 0.00 0.00 0.00 59 1009.4
20260505201604 75 52 0.0 4.0 0.00 0.00 0.00 59 1009.3
20260505201506 74 74 0.0 4.0 0.00 0.00 0.00 59 1009.4
20260505201401 75 71 1.0 4.0 0.00 0.00 0.00 59 1009.4
20260505201300 75 86 1.0 4.0 0.00 0.00 0.00 59 1009.4
20260505201201 75 73 1.0 4.0 0.00 0.00 0.00 59 1009.4
20260505201100 75 27 1.0 4.0 0.00 0.00 0.00 59 1009.4
20260505201005 75 59 2.0 4.0 0.00 0.00 0.00 59 1009.4
20260505200902 75 64 2.0 4.0 0.00 0.00 0.00 59 1009.4
20260505200702 75 47 2.0 4.0 0.00 0.00 0.00 59 1009.4
20260505200602 75 61 2.0 5.0 0.00 0.00 0.00 59 1009.4
20260505200503 75 79 2.0 5.0 0.00 0.00 0.00 59 1009.4
20260505200401 75 74 1.0 5.0 0.00 0.00 0.00 58 1009.4
20260505200301 75 128 1.0 5.0 0.00 0.00 0.00 58 1009.4
20260505200100 75 126 2.0 5.0 0.00 0.00 0.00 58 1009.4
20260505200007 75 84 2.0 5.0 0.00 0.00 0.00 58 1009.4
20260505195902 75 92 2.0 5.0 0.00 0.00 0.00 58 1009.4
20260505195803 75 73 2.0 5.0 0.00 0.00 0.00 58 1009.4
20260505195703 75 94 2.0 6.0 0.00 0.00 0.00 58 1009.4
20260505195607 75 84 1.0 4.0 0.00 0.00 0.00 58 1009.4
20260505195504 75 36 1.0 4.0 0.00 0.00 0.00 58 1009.4
20260505195403 75 73 1.0 4.0 0.00 0.00 0.00 58 1009.4
20260505195305 75 74 1.0 4.0 0.00 0.00 0.00 58 1009.5
20260505195202 75 69 2.0 4.0 0.00 0.00 0.00 58 1009.4
20260505194903 75 68 2.0 6.0 0.00 0.00 0.00 58 1009.5
20260505194704 75 84 2.0 6.0 0.00 0.00 0.00 58 1009.4
20260505194603 75 99 2.0 6.0 0.00 0.00 0.00 58 1009.4
20260505194505 75 66 2.0 6.0 0.00 0.00 0.00 58 1009.5
20260505194403 75 109 2.0 6.0 0.00 0.00 0.00 58 1009.5
20260505194303 75 89 2.0 6.0 0.00 0.00 0.00 58 1009.5
20260505194103 75 61 3.0 6.0 0.00 0.00 0.00 58 1009.5
20260505194007 75 70 2.0 5.0 0.00 0.00 0.00 58 1009.5
20260505193904 75 77 2.0 6.0 0.00 0.00 0.00 58 1009.5
20260505193806 75 80 2.0 6.0 0.00 0.00 0.00 58 1009.5
20260505193603 75 95 1.0 6.0 0.00 0.00 0.00 58 1009.5
20260505193504 75 87 2.0 6.0 0.00 0.00 0.00 58 1009.5
20260505193404 75 107 2.0 6.0 0.00 0.00 0.00 58 1009.5
20260505193304 75 97 2.0 5.0 0.00 0.00 0.00 58 1009.5
20260505193204 76 80 2.0 5.0 0.00 0.00 0.00 58 1009.5
20260505193105 76 86 2.0 5.0 0.00 0.00 0.00 58 1009.6
20260505193005 76 93 2.0 5.0 0.00 0.00 0.00 58 1009.6
20260505192903 76 53 3.0 5.0 0.00 0.00 0.00 58 1009.6
20260505192805 76 101 3.0 5.0 0.00 0.00 0.00 57 1009.6
20260505192702 76 70 3.0 5.0 0.00 0.00 0.00 57 1009.6
20260505192604 76 67 3.0 5.0 0.00 0.00 0.00 57 1009.6
20260505192504 76 69 2.0 5.0 0.00 0.00 0.00 57 1009.6
20260505192402 76 59 2.0 5.0 0.00 0.00 0.00 57 1009.6
20260505192305 76 66 1.0 5.0 0.00 0.00 0.00 57 1009.6
20260505192203 76 53 1.0 5.0 0.00 0.00 0.00 57 1009.6
20260505192103 76 67 1.0 5.0 0.00 0.00 0.00 58 1009.7
20260505192007 76 125 1.0 5.0 0.00 0.00 0.00 58 1009.6
20260505191901 76 88 2.0 5.0 0.00 0.00 0.00 58 1009.6
20260505191802 76 85 2.0 5.0 0.00 0.00 0.00 58 1009.6
20260505191702 76 61 1.0 5.0 0.00 0.00 0.00 58 1009.6
20260505191505 76 73 3.0 5.0 0.00 0.00 0.00 58 1009.6
20260505191403 76 69 3.0 5.0 0.00 0.00 0.00 58 1009.6
20260505191202 76 55 2.0 4.0 0.00 0.00 0.00 57 1009.6
20260505191104 76 43 2.0 4.0 0.00 0.00 0.00 57 1009.6
20260505191006 76 64 1.0 3.0 0.00 0.00 0.00 57 1009.7
20260505190902 76 76 1.0 4.0 0.00 0.00 0.00 58 1009.7
20260505190802 76 76 1.0 6.0 0.00 0.00 0.00 58 1009.7
20260505190702 76 67 1.0 9.0 0.00 0.00 0.00 58 1009.7
20260505190505 76 70 2.0 9.0 0.00 0.00 0.00 58 1009.7
20260505190402 76 71 1.0 9.0 0.00 0.00 0.00 58 1009.7
20260505190204 76 83 2.0 9.0 0.00 0.00 0.00 58 1009.7
20260505190107 76 58 3.0 9.0 0.00 0.00 0.00 58 1009.7
20260505190008 76 86 4.0 9.0 0.00 0.00 0.00 57 1009.7
20260505185802 76 92 2.0 6.0 0.00 0.00 0.00 58 1009.8
20260505185703 76 57 2.0 5.0 0.00 0.00 0.00 58 1009.8
20260505185603 76 111 2.0 5.0 0.00 0.00 0.00 58 1009.8
20260505185504 76 90 3.0 5.0 0.00 0.00 0.00 57 1009.8
20260505185403 76 65 3.0 4.0 0.00 0.00 0.00 57 1009.8
20260505185304 76 57 2.0 3.0 0.00 0.00 0.00 57 1009.8
20260505185202 76 46 1.0 3.0 0.00 0.00 0.00 57 1009.8
20260505185103 76 59 1.0 3.0 0.00 0.00 0.00 57 1009.8
20260505185006 76 58 2.0 3.0 0.00 0.00 0.00 57 1009.8
20260505184902 76 60 2.0 3.0 0.00 0.00 0.00 57 1009.8
20260505184803 76 39 2.0 3.0 0.00 0.00 0.00 57 1009.8
20260505184603 76 55 1.0 2.0 0.00 0.00 0.00 57 1009.9
20260505184503 76 65 1.0 2.0 0.00 0.00 0.00 57 1009.8
20260505184400 76 46 0.0 1.0 0.00 0.00 0.00 57 1009.8
20260505184303 76 49 0.0 4.0 0.00 0.00 0.00 57 1009.9
20260505184204 76 28 0.0 4.0 0.00 0.00 0.00 57 1009.8
20260505184103 76 351 0.0 4.0 0.00 0.00 0.00 57 1009.9
20260505183900 76 351 0.0 4.0 0.00 0.00 0.00 57 1009.9
20260505183803 76 348 0.0 4.0 0.00 0.00 0.00 57 1009.9
20260505183702 76 49 0.0 4.0 0.00 0.00 0.00 57 1009.9
20260505183603 76 5 1.0 4.0 0.00 0.00 0.00 57 1010.0
20260505183505 76 9 2.0 4.0 0.00 0.00 0.00 57 1009.9
20260505183402 76 52 2.0 4.0 0.00 0.00 0.00 57 1010.0
20260505183302 76 31 1.0 4.0 0.00 0.00 0.00 57 1010.0
20260505183202 76 59 2.0 4.0 0.00 0.00 0.00 57 1010.0
20260505182906 77 55 3.0 4.0 0.00 0.00 0.00 57 1010.0
20260505182803 77 54 2.0 4.0 0.00 0.00 0.00 57 1010.1
20260505182602 77 62 1.0 4.0 0.00 0.00 0.00 57 1010.0
20260505182402 77 18 1.0 4.0 0.00 0.00 0.00 57 1010.1
20260505182202 77 29 0.0 3.0 0.00 0.00 0.00 57 1010.0
20260505182101 77 329 0.0 3.0 0.00 0.00 0.00 57 1010.1
20260505182004 77 329 1.0 3.0 0.00 0.00 0.00 57 1010.0
20260505181902 77 355 1.0 4.0 0.00 0.00 0.00 56 1010.0
20260505181803 77 53 1.0 4.0 0.00 0.00 0.00 57 1010.1
20260505181504 77 60 0.0 4.0 0.00 0.00 0.00 57 1010.1
20260505181403 77 66 0.0 4.0 0.00 0.00 0.00 57 1010.1
20260505181302 77 335 1.0 4.0 0.00 0.00 0.00 57 1010.1
20260505181202 77 11 2.0 4.0 0.00 0.00 0.00 57 1010.1
20260505181102 77 68 3.0 4.0 0.00 0.00 0.00 57 1010.1
20260505181005 77 35 2.0 4.0 0.00 0.00 0.00 57 1010.1
20260505180902 77 38 2.0 4.0 0.00 0.00 0.00 57 1010.1
20260505180802 77 60 1.0 4.0 0.00 0.00 0.00 57 1010.1
20260505180602 77 61 1.0 4.0 0.00 0.00 0.00 57 1010.1
20260505180507 77 28 2.0 4.0 0.00 0.00 0.00 57 1010.1
20260505180402 77 74 2.0 4.0 0.00 0.00 0.00 57 1010.2
20260505180303 77 43 1.0 4.0 0.00 0.00 0.00 57 1010.2
20260505180008 77 19 2.0 4.0 0.00 0.00 0.00 57 1010.2
20260505175905 77 43 2.0 4.0 0.00 0.00 0.00 57 1010.2
20260505175803 77 38 1.0 4.0 0.00 0.00 0.00 57 1010.2
20260505175603 77 37 1.0 4.0 0.00 0.00 0.00 57 1010.2
20260505175510 77 9 2.0 4.0 0.00 0.00 0.00 57 1010.2
20260505175404 77 344 2.0 4.0 0.00 0.00 0.00 57 1010.2
20260505175305 77 337 3.0 4.0 0.00 0.00 0.00 57 1010.2
20260505175103 77 23 1.0 6.0 0.00 0.00 0.00 57 1010.2
20260505175006 77 9 1.0 6.0 0.00 0.00 0.00 57 1010.2
20260505174903 77 16 1.0 6.0 0.00 0.00 0.00 57 1010.2
20260505174804 77 344 0.0 6.0 0.00 0.00 0.00 57 1010.2
20260505174607 77 5 1.0 6.0 0.00 0.00 0.00 57 1010.2
20260505174506 77 311 2.0 6.0 0.00 0.00 0.00 57 1010.2
20260505174405 77 29 3.0 6.0 0.00 0.00 0.00 57 1010.2
20260505174304 77 42 4.0 6.0 0.00 0.00 0.00 57 1010.2
20260505174203 77 49 4.0 6.0 0.00 0.00 0.00 58 1010.1
20260505174013 77 39 4.0 6.0 0.00 0.00 0.00 58 1010.2
20260505173904 77 59 4.0 6.0 0.00 0.00 0.00 58 1010.2
20260505173803 77 48 2.0 5.0 0.00 0.00 0.00 58 1010.2
20260505173702 77 56 1.0 5.0 0.00 0.00 0.00 58 1010.2
20260505173506 77 355 1.0 5.0 0.00 0.00 0.00 59 1010.2
20260505173403 77 334 2.0 5.0 0.00 0.00 0.00 59 1010.3
20260505173302 77 300 2.0 5.0 0.00 0.00 0.00 59 1010.3
20260505173203 78 298 1.0 5.0 0.00 0.00 0.00 58 1010.3
20260505173103 78 298 2.0 5.0 0.00 0.00 0.00 58 1010.3
20260505172903 78 30 2.0 5.0 0.00 0.00 0.00 58 1010.2
20260505172804 78 40 2.0 5.0 0.00 0.00 0.00 58 1010.3
20260505172703 78 38 3.0 5.0 0.00 0.00 0.00 58 1010.2
20260505172402 78 35 3.0 4.0 0.00 0.00 0.00 58 1010.3
20260505172203 78 337 1.0 3.0 0.00 0.00 0.00 58 1010.3
20260505172103 78 340 0.0 2.0 0.00 0.00 0.00 58 1010.2
20260505172009 78 336 0.0 3.0 0.00 0.00 0.00 58 1010.2
20260505171903 78 19 1.0 3.0 0.00 0.00 0.00 58 1010.2
20260505171804 78 33 0.0 3.0 0.00 0.00 0.00 58 1010.2
20260505171602 78 5 1.0 3.0 0.00 0.00 0.00 58 1010.2
20260505171403 78 40 1.0 3.0 0.00 0.00 0.00 58 1010.2
20260505171303 78 53 1.0 3.0 0.00 0.00 0.00 58 1010.2
20260505171202 78 9 1.0 3.0 0.00 0.00 0.00 58 1010.2
20260505171104 78 17 0.0 2.0 0.00 0.00 0.00 58 1010.2
20260505170903 78 341 0.0 2.0 0.00 0.00 0.00 58 1010.2
20260505170803 78 341 0.0 2.0 0.00 0.00 0.00 57 1010.2
20260505170703 78 341 1.0 2.0 0.00 0.00 0.00 57 1010.2
20260505170603 78 323 1.0 2.0 0.00 0.00 0.00 57 1010.2
20260505170505 78 323 0.0 2.0 0.00 0.00 0.00 57 1010.1
20260505170404 79 323 0.0 1.0 0.00 0.00 0.00 57 1010.2
20260505170303 79 323 0.0 1.0 0.00 0.00 0.00 57 1010.2
20260505170202 79 323 0.0 1.0 0.00 0.00 0.00 57 1010.2
20260505170104 79 323 0.0 1.0 0.00 0.00 0.00 57 1010.2
20260505165902 79 323 0.0 2.0 0.00 0.00 0.00 57 1010.2
20260505165804 79 321 0.0 2.0 0.00 0.00 0.00 57 1010.2
20260505165703 79 321 0.0 2.0 0.00 0.00 0.00 57 1010.3
20260505165602 79 321 0.0 2.0 0.00 0.00 0.00 57 1010.2
20260505165505 79 342 0.0 2.0 0.00 0.00 0.00 57 1010.3
20260505165104 79 312 1.0 3.0 0.00 0.00 0.00 56 1010.3
20260505165007 79 325 1.0 3.0 0.00 0.00 0.00 56 1010.3
20260505164903 79 347 1.0 3.0 0.00 0.00 0.00 56 1010.3
20260505164803 79 342 1.0 3.0 0.00 0.00 0.00 56 1010.3
20260505164704 79 343 1.0 3.0 0.00 0.00 0.00 56 1010.2
20260505164603 79 343 2.0 3.0 0.00 0.00 0.00 56 1010.3
20260505164505 79 329 2.0 3.0 0.00 0.00 0.00 55 1010.2
20260505164403 79 327 1.0 3.0 0.00 0.00 0.00 55 1010.2
20260505164205 80 315 1.0 3.0 0.00 0.00 0.00 55 1010.2
20260505164103 80 324 2.0 3.0 0.00 0.00 0.00 55 1010.2
20260505164006 80 323 1.0 4.0 0.00 0.00 0.00 55 1010.2
20260505163904 80 327 1.0 4.0 0.00 0.00 0.00 54 1010.2
20260505163804 80 306 2.0 4.0 0.00 0.00 0.00 54 1010.1
20260505163704 80 298 2.0 4.0 0.00 0.00 0.00 54 1010.1
20260505163603 80 306 1.0 4.0 0.00 0.00 0.00 54 1010.2
20260505163505 80 301 1.0 4.0 0.00 0.00 0.00 54 1010.2
20260505163404 80 313 2.0 4.0 0.00 0.00 0.00 53 1010.1
20260505163303 80 314 2.0 4.0 0.00 0.00 0.00 53 1010.1
20260505163203 80 313 2.0 4.0 0.00 0.00 0.00 53 1010.2
20260505163103 80 312 1.0 4.0 0.00 0.00 0.00 53 1010.1
20260505163009 81 311 1.0 4.0 0.00 0.00 0.00 52 1010.1
20260505162904 81 321 2.0 4.0 0.00 0.00 0.00 52 1010.2
20260505162803 81 300 2.0 4.0 0.00 0.00 0.00 52 1010.2
20260505162703 81 305 2.0 4.0 0.00 0.00 0.00 52 1010.2
20260505162603 81 313 2.0 4.0 0.00 0.00 0.00 51 1010.2
20260505162507 81 309 2.0 4.0 0.00 0.00 0.00 51 1010.2
20260505162404 81 309 2.0 4.0 0.00 0.00 0.00 51 1010.2
20260505162306 81 317 2.0 4.0 0.00 0.00 0.00 51 1010.1
20260505162104 81 313 2.0 3.0 0.00 0.00 0.00 51 1010.2
20260505162006 81 302 1.0 3.0 0.00 0.00 0.00 51 1010.2
20260505161903 81 302 1.0 3.0 0.00 0.00 0.00 51 1010.3
20260505161704 82 309 2.0 3.0 0.00 0.00 0.00 51 1010.2
20260505161505 82 311 1.0 3.0 0.00 0.00 0.00 50 1010.2
20260505161404 82 293 1.0 3.0 0.00 0.00 0.00 50 1010.2
20260505161104 82 333 2.0 3.0 0.00 0.00 0.00 49 1010.2
20260505161007 82 324 2.0 3.0 0.00 0.00 0.00 49 1010.2
20260505160904 82 321 1.0 2.0 0.00 0.00 0.00 49 1010.2
20260505160603 82 268 0.0 2.0 0.00 0.00 0.00 48 1010.2
20260505160506 82 268 1.0 2.0 0.00 0.00 0.00 48 1010.2
20260505160403 82 275 0.0 1.0 0.00 0.00 0.00 48 1010.2
20260505160104 82 290 0.0 0.0 0.00 0.00 0.00 48 1010.2
20260505153303 83 217 0.0 0.0 0.00 0.00 0.00 46 1010.2
20260505153203 83 217 0.0 0.0 0.00 0.00 0.00 46 1010.2
20260505153104 83 217 0.0 0.0 0.00 0.00 0.00 46 1010.2
20260505153006 83 217 0.0 0.0 0.00 0.00 0.00 46 1010.1
20260505152904 83 217 0.0 0.0 0.00 0.00 0.00 45 1010.1
20260505152804 83 217 0.0 0.0 0.00 0.00 0.00 45 1010.1
20260505152604 83 217 0.0 0.0 0.00 0.00 0.00 46 1010.1
20260505152505 83 217 0.0 0.0 0.00 0.00 0.00 46 1010.1
20260505152305 83 221 0.0 2.0 0.00 0.00 0.00 45 1010.1
20260505152203 84 221 0.0 2.0 0.00 0.00 0.00 45 1010.1
20260505152103 84 221 0.0 2.0 0.00 0.00 0.00 45 1010.1
20260505152006 84 221 0.0 2.0 0.00 0.00 0.00 45 1010.0
20260505151903 84 220 0.0 2.0 0.00 0.00 0.00 45 1010.0
20260505151703 84 188 0.0 2.0 0.00 0.00 0.00 44 1010.1
20260505151504 84 188 0.0 2.0 0.00 0.00 0.00 44 1010.0
20260505151403 84 188 0.0 1.0 0.00 0.00 0.00 44 1010.0
20260505151304 84 188 0.0 1.0 0.00 0.00 0.00 44 1010.0
20260505151204 84 188 0.0 1.0 0.00 0.00 0.00 44 1010.0
20260505151103 84 188 0.0 2.0 0.00 0.00 0.00 44 1009.9
20260505151006 84 188 0.0 2.0 0.00 0.00 0.00 44 1009.9
20260505150903 84 188 0.0 2.0 0.00 0.00 0.00 44 1009.9
20260505150704 84 188 0.0 2.0 0.00 0.00 0.00 44 1009.8
20260505150603 84 188 0.0 2.0 0.00 0.00 0.00 44 1009.8
20260505150404 84 188 1.0 3.0 0.00 0.00 0.00 43 1009.8
20260505150304 84 188 1.0 3.0 0.00 0.00 0.00 43 1009.7
20260505150204 84 198 1.0 3.0 0.00 0.00 0.00 44 1009.8
20260505140604 85 261 1.0 6.0 0.00 0.00 0.00 41 1009.5
20260505140505 85 269 1.0 6.0 0.00 0.00 0.00 40 1009.5
20260505140402 85 259 2.0 6.0 0.00 0.00 0.00 40 1009.6
20260505140306 85 270 3.0 6.0 0.00 0.00 0.00 40 1009.6
20260505140202 85 251 3.0 6.0 0.00 0.00 0.00 40 1009.5
20260505130303 89 308 3.0 8.0 0.00 0.00 0.00 36 1009.6
20260505130201 89 274 4.0 8.0 0.00 0.00 0.00 36 1009.6
20260505125006 90 279 3.0 8.0 0.00 0.00 0.00 36 1009.7
20260505124902 90 311 4.0 8.0 0.00 0.00 0.00 36 1009.6
20260505124801 90 307 5.0 8.0 0.00 0.00 0.00 36 1009.6
20260505124703 90 286 5.0 8.0 0.00 0.00 0.00 36 1009.6
20260505124603 90 295 4.0 8.0 0.00 0.00 0.00 36 1009.7
20260505124505 90 270 3.0 8.0 0.00 0.00 0.00 36 1009.7
20260505124302 90 244 4.0 7.0 0.00 0.00 0.00 35 1009.7
20260505124202 90 295 4.0 9.0 0.00 0.00 0.00 35 1009.7
20260505124101 90 281 4.0 9.0 0.00 0.00 0.00 34 1009.6
20260505124005 90 266 4.0 9.0 0.00 0.00 0.00 35 1009.7
20260505123903 90 281 3.0 10.0 0.00 0.00 0.00 35 1009.7
20260505123803 90 296 4.0 10.0 0.00 0.00 0.00 35 1009.8
20260505123702 90 279 4.0 10.0 0.00 0.00 0.00 35 1009.7
20260505123602 90 271 4.0 10.0 0.00 0.00 0.00 35 1009.8
20260505123505 90 252 5.0 10.0 0.00 0.00 0.00 35 1009.7
20260505123403 90 288 6.0 10.0 0.00 0.00 0.00 35 1009.8
20260505123302 90 276 6.0 10.0 0.00 0.00 0.00 35 1009.9
20260505123202 90 271 6.0 10.0 0.00 0.00 0.00 34 1009.8
20260505122903 91 270 6.0 10.0 0.00 0.00 0.00 35 1009.8
20260505122802 91 316 4.0 8.0 0.00 0.00 0.00 35 1009.7
20260505122703 91 312 3.0 6.0 0.00 0.00 0.00 35 1009.8
20260505122602 91 328 4.0 6.0 0.00 0.00 0.00 34 1009.8
20260505122305 91 231 3.0 7.0 0.00 0.00 0.00 33 1009.7
20260505122202 91 264 3.0 8.0 0.00 0.00 0.00 34 1009.7
20260505122102 91 342 4.0 9.0 0.00 0.00 0.00 34 1009.7
20260505122005 91 270 5.0 9.0 0.00 0.00 0.00 34 1009.7
20260505121902 91 280 5.0 9.0 0.00 0.00 0.00 34 1009.7
20260505121803 91 280 4.0 9.0 0.00 0.00 0.00 34 1009.7
20260505121603 91 286 3.0 9.0 0.00 0.00 0.00 33 1009.6
20260505121506 91 273 4.0 9.0 0.00 0.00 0.00 33 1009.6
20260505121402 91 263 5.0 9.0 0.00 0.00 0.00 33 1009.5
20260505121303 91 306 5.0 9.0 0.00 0.00 0.00 33 1009.5
20260505121201 91 279 5.0 9.0 0.00 0.00 0.00 33 1009.5
20260505121103 91 261 5.0 9.0 0.00 0.00 0.00 33 1009.5
20260505121004 91 263 5.0 9.0 0.00 0.00 0.00 34 1009.4
20260505120903 91 286 5.0 9.0 0.00 0.00 0.00 34 1009.4
20260505120801 91 273 5.0 9.0 0.00 0.00 0.00 33 1009.4
20260505120703 91 290 5.0 9.0 0.00 0.00 0.00 32 1009.4
20260505120603 91 273 5.0 9.0 0.00 0.00 0.00 32 1009.5
20260505120504 91 287 6.0 9.0 0.00 0.00 0.00 32 1009.5
20260505120402 91 279 5.0 9.0 0.00 0.00 0.00 32 1009.5
20260505120011 91 273 6.0 8.0 0.00 0.00 0.00 30 1009.5
20260505115902 91 298 4.0 8.0 0.00 0.00 0.00 31 1009.5
20260505115802 91 290 3.0 6.0 0.00 0.00 0.00 31 1009.5
20260505115704 91 271 3.0 7.0 0.00 0.00 0.00 32 1009.6
20260505115602 91 286 3.0 7.0 0.00 0.00 0.00 31 1009.6
20260505115404 91 269 3.0 8.0 0.00 0.00 0.00 31 1009.6